Regional Weather Roundup
Issued by NWS Albany, NY

Home | Current Version | Previous Version | Text Only | Print | Product List | Glossary On
Versions: 1 2 3 4 5 6 7 8 9 10 11 12 13 14 15 16 17 18 19 20 21 22 23 24 25 26 27 28 29 30 31 32 33 34 35 36 37 38 39 40 41 42 43 44 45 46 47
000
ASUS41 KALY 260910
RWRALY

NEW YORK STATE HOURLY WEATHER ROUNDUP
NATIONAL WEATHER SERVICE ALBANY NY
400 AM EST FRI DEC 26 2014

NOTE: "FAIR" INDICATES FEW OR NO CLOUDS BELOW 12,000 FEET WITH NO
SIGNIFICANT WEATHER AND/OR NO OBSTRUCTIONS TO VISIBILITY.

NYZ032-033-038>043-046>054-057>066-NYZ062>081-261000-
EAST


CITY           SKY/WX    TMP DP  RH WIND       PRES   REMARKS
ALBANY         CLOUDY    42  27  55 W12G21    30.12S
GLENS FALLS    CLOUDY    40  30  67 SW3       30.08R
POUGHKEEPSIE   CLEAR     30  26  85 CALM      30.11F
NEWBURGH       CLEAR     36  28  75 CALM      30.13F
MONTGOMERY     CLEAR     33  26  75 W6        30.11F WCI  28
WHITE PLAINS   CLEAR     38  27  64 CALM      30.10F
ISLIP          CLEAR     36  28  73 W6        30.12S WCI  31
NEW YORK CITY  CLEAR     42  29  59 W8        30.14F
CENTRAL PARK   CLEAR     42  28  57 VRB6      30.16F
$$

NYZ005>009-017-018-044>046-055-056-261000-
CENTRAL


CITY           SKY/WX    TMP DP  RH WIND       PRES   REMARKS
FULTON         CLOUDY    40  28  62 W9        30.14S WCI  34
SYRACUSE       CLOUDY    40  29  64 W9        30.14F WCI  34
ROME           CLOUDY    39  28  64 W17       30.15S WCI  30
ELMIRA         CLOUDY    38  27  64 W6        30.16R WCI  33
BINGHAMTON     CLOUDY    36  26  67 NW7       30.11S WCI  30
MONTICELLO     CLOUDY    36  27  69 NW7       30.11S WCI  30
$$

NYZ026>034-041>043-261000-
NORTH


CITY           SKY/WX    TMP DP  RH WIND       PRES   REMARKS
WATERTOWN      CLOUDY    41  29  62 W14G23    30.12R
FORT DRUM      NOT AVBL
MASSENA        MOCLDY    38  29  70 SW13      30.05R WCI  30
SARANAC LAKE   CLOUDY    34  28  79 W12G18    29.99S WCI  25
PLATTSBURGH    CLOUDY    41  27  57 CALM      30.02R
$$

NYZ001>004-010>016-019>021-261000-
WEST


CITY           SKY/WX    TMP DP  RH WIND       PRES   REMARKS
NIAGARA FALLS  CLEAR     36  30  79 W12       30.16R WCI  28
BUFFALO        MOCLDY    38  30  73 SW18G25   30.16R WCI  28
DUNKIRK        CLOUDY    37  28  70 SW14      30.19R WCI  28
JAMESTOWN      PTCLDY    32  25  74 SW10      30.16R WCI  24
WELLSVILLE     CLOUDY    33  25  72 W15       30.14R WCI  23
ROCHESTER      CLOUDY    39  28  64 W8        30.15R WCI  33
PENN YAN       CLOUDY    38  27  64 SW9       30.14F WCI  31
$$

             KEY
       WCI = WIND CHILL INDEX
       VSB = VISIBILITY
       HX  = HEAT INDEX
$$


USA.gov is the U.S. government's official web portal to all federal, state and local government web resources and services.